VJT93 GMAD-GMMX

Flight info

Callsign VJT93
Flight time 0h 52m
Altitude 16000
Route OLOMA UG850 LISRA
Aircraft GLF5/M-SFGHIRWXY/S

Departure

Time 2026-04-24 01:50
Airport Al Massira Airport (GMAD)

Arrival

Time 2026-04-24 02:43
Airport Marrakesh Menara Airport (GMMX)
Time Latitude Longitude Altitude Speed Heading
2026-04-24 01:17 30.32893 -9.41285 259 ft 0 kts 136°
2026-04-24 01:43 30.32870 -9.41260 259 ft 4 kts 139°
2026-04-24 01:43 30.32837 -9.41252 259 ft 6 kts 177°
2026-04-24 01:43 30.32814 -9.41205 259 ft 8 kts 90°
2026-04-24 01:43 30.32812 -9.41136 259 ft 9 kts 92°
2026-04-24 01:44 30.32810 -9.41048 259 ft 11 kts 91°
2026-04-24 01:44 30.32807 -9.40961 259 ft 10 kts 91°
2026-04-24 01:44 30.32806 -9.40879 259 ft 9 kts 91°
2026-04-24 01:44 30.32806 -9.40801 259 ft 9 kts 90°
2026-04-24 01:45 30.32802 -9.40729 259 ft 8 kts 89°
2026-04-24 01:45 30.32794 -9.40663 259 ft 8 kts 114°
2026-04-24 01:45 30.32741 -9.40631 259 ft 11 kts 178°
2026-04-24 01:45 30.32635 -9.40635 259 ft 16 kts 183°
2026-04-24 01:46 30.32519 -9.40638 259 ft 16 kts 181°
2026-04-24 01:46 30.32436 -9.40585 258 ft 14 kts 97°
2026-04-24 01:46 30.32433 -9.40472 259 ft 13 kts 91°
2026-04-24 01:46 30.32431 -9.40366 259 ft 12 kts 94°
2026-04-24 01:47 30.32428 -9.40267 258 ft 11 kts 92°
2026-04-24 01:47 30.32427 -9.40174 258 ft 11 kts 92°
2026-04-24 01:47 30.32425 -9.40082 259 ft 13 kts 93°
2026-04-24 01:47 30.32417 -9.39972 258 ft 13 kts 96°
2026-04-24 01:48 30.32418 -9.39859 258 ft 17 kts 91°
2026-04-24 01:48 30.32415 -9.39687 258 ft 21 kts 91°
2026-04-24 01:48 30.32411 -9.39529 258 ft 13 kts 92°
2026-04-24 01:48 30.32359 -9.39462 258 ft 12 kts 183°
2026-04-24 01:49 30.32274 -9.39466 258 ft 11 kts 183°
2026-04-24 01:49 30.32256 -9.39467 258 ft 0 kts 182°
2026-04-24 01:49 30.32253 -9.39468 258 ft 2 kts 186°
2026-04-24 01:49 30.32230 -9.39491 258 ft 6 kts 242°
2026-04-24 01:50 30.32221 -9.39550 258 ft 10 kts 269°
2026-04-24 01:50 30.32225 -9.39815 258 ft 75 kts 272°
2026-04-24 01:50 30.32253 -9.40823 339 ft 165 kts 272°
2026-04-24 01:50 30.32287 -9.42127 1462 ft 175 kts 275°
2026-04-24 01:51 30.32383 -9.43515 2737 ft 173 kts 279°
2026-04-24 01:51 30.32102 -9.44785 3795 ft 174 kts 237°
2026-04-24 01:51 30.30996 -9.45280 4443 ft 193 kts 166°
2026-04-24 01:51 30.30159 -9.44117 4947 ft 212 kts 95°
2026-04-24 01:52 30.30424 -9.42300 5272 ft 259 kts 70°
2026-04-24 01:52 30.31250 -9.40320 6263 ft 277 kts 48°
2026-04-24 01:52 30.32683 -9.39050 7803 ft 271 kts 33°
2026-04-24 01:52 30.34281 -9.37783 8349 ft 295 kts 32°
2026-04-24 01:53 30.35947 -9.36390 8224 ft 288 kts 37°
2026-04-24 01:53 30.37572 -9.35076 8004 ft 279 kts 23°
2026-04-24 01:53 30.39446 -9.34540 8425 ft 278 kts
2026-04-24 01:53 30.41398 -9.34714 8814 ft 287 kts 353°
2026-04-24 01:54 30.43507 -9.34816 9700 ft 314 kts 360°
2026-04-24 01:54 30.45565 -9.34234 11050 ft 323 kts 20°
2026-04-24 01:54 30.47458 -9.32562 11509 ft 359 kts 47°
2026-04-24 01:54 30.49082 -9.30343 12588 ft 372 kts 49°
2026-04-24 01:55 30.50715 -9.27944 13769 ft 381 kts 50°
2026-04-24 01:55 30.52344 -9.25473 14882 ft 392 kts 50°
2026-04-24 01:55 30.53998 -9.22922 15901 ft 399 kts 51°
2026-04-24 01:55 30.55671 -9.20323 16000 ft 405 kts 51°
2026-04-24 01:56 30.57369 -9.17676 16039 ft 405 kts 51°
2026-04-24 01:56 30.59052 -9.15049 16054 ft 405 kts 51°
2026-04-24 01:56 30.60726 -9.12433 16068 ft 405 kts 51°
2026-04-24 01:56 30.62398 -9.09819 16049 ft 403 kts 51°
2026-04-24 01:57 30.64123 -9.07245 16053 ft 401 kts 44°
2026-04-24 01:57 30.66210 -9.05097 16076 ft 398 kts 37°
2026-04-24 01:57 30.68357 -9.03011 16062 ft 398 kts 37°
2026-04-24 01:57 30.70487 -9.00937 16083 ft 398 kts 37°
2026-04-24 01:58 30.72630 -8.98847 16077 ft 399 kts 37°
2026-04-24 01:58 30.74761 -8.96767 16083 ft 398 kts 37°
2026-04-24 01:58 30.76893 -8.94686 16095 ft 399 kts 37°
2026-04-24 01:58 30.78678 -8.92940 16085 ft 397 kts 37°
2026-04-24 02:22 30.80553 -8.91106 16077 ft 399 kts 37°
2026-04-24 02:23 30.82693 -8.89012 16084 ft 398 kts 37°
2026-04-24 02:23 30.84803 -8.86946 16032 ft 396 kts 37°
2026-04-24 02:23 30.86937 -8.84858 16127 ft 400 kts 37°
2026-04-24 02:23 30.89064 -8.82779 16098 ft 399 kts 36°
2026-04-24 02:24 30.91383 -8.81007 16105 ft 396 kts 27°
2026-04-24 02:24 30.93757 -8.79380 16123 ft 394 kts 27°
2026-04-24 02:24 30.96125 -8.77749 16116 ft 394 kts 27°
2026-04-24 02:24 30.98489 -8.76116 16128 ft 393 kts 27°
2026-04-24 02:25 31.00862 -8.74475 16151 ft 393 kts 27°
2026-04-24 02:25 31.03242 -8.72828 16150 ft 394 kts 27°
2026-04-24 02:25 31.05606 -8.71192 16158 ft 395 kts 27°
2026-04-24 02:25 31.07975 -8.69550 16141 ft 393 kts 27°
2026-04-24 02:26 31.10350 -8.67904 16126 ft 393 kts 27°
2026-04-24 02:26 31.12689 -8.66281 16026 ft 386 kts 27°
2026-04-24 02:26 31.15018 -8.64666 16019 ft 396 kts 27°
2026-04-24 02:26 31.17382 -8.63025 15258 ft 393 kts 28°
2026-04-24 02:27 31.19703 -8.61411 14933 ft 387 kts 27°
2026-04-24 02:27 31.22013 -8.59804 14380 ft 381 kts 28°
2026-04-24 02:27 31.24284 -8.58225 13813 ft 376 kts 28°
2026-04-24 02:27 31.26519 -8.56669 13263 ft 371 kts 28°
2026-04-24 02:28 31.28719 -8.55137 12743 ft 368 kts 28°
2026-04-24 02:28 31.30925 -8.53601 12189 ft 365 kts 29°
2026-04-24 02:28 31.33096 -8.52087 11673 ft 363 kts 29°
2026-04-24 02:28 31.35246 -8.50587 11139 ft 359 kts 29°
2026-04-24 02:29 31.37427 -8.49197 10577 ft 351 kts 19°
2026-04-24 02:29 31.39820 -8.48778 10042 ft 340 kts 359°
2026-04-24 02:29 31.42186 -8.48793 9515 ft 333 kts 358°
2026-04-24 02:29 31.43367 -8.48808 9250 ft 331 kts 358°
2026-04-24 02:30 31.45149 -8.48832 8841 ft 327 kts 358°
2026-04-24 02:30 31.47406 -8.48867 8290 ft 320 kts 358°
2026-04-24 02:30 31.49506 -8.48899 7542 ft 286 kts 359°
2026-04-24 02:31 31.51376 -8.48929 6990 ft 253 kts 359°
2026-04-24 02:31 31.53050 -8.48956 6427 ft 230 kts 359°
2026-04-24 02:31 31.54615 -8.48980 5875 ft 219 kts 359°
2026-04-24 02:31 31.56123 -8.49005 5326 ft 213 kts 360°
2026-04-24 02:32 31.57596 -8.49028 4778 ft 212 kts 360°
2026-04-24 02:32 31.59058 -8.49051 4243 ft 209 kts 360°
2026-04-24 02:32 31.60512 -8.49074 3704 ft 207 kts 360°
2026-04-24 02:32 31.62047 -8.49095 3708 ft 221 kts
2026-04-24 02:33 31.63413 -8.48514 3571 ft 208 kts 44°
2026-04-24 02:33 31.64013 -8.47017 3544 ft 211 kts 83°
2026-04-24 02:33 31.64028 -8.45315 3531 ft 208 kts 88°
2026-04-24 02:33 31.63983 -8.43604 3508 ft 205 kts 90°
2026-04-24 02:34 31.63910 -8.41915 3525 ft 202 kts 90°
2026-04-24 02:34 31.63818 -8.40388 3540 ft 177 kts 91°
2026-04-24 02:34 31.63725 -8.38987 3517 ft 170 kts 91°
2026-04-24 02:34 31.63626 -8.37612 3515 ft 168 kts 91°
2026-04-24 02:35 31.63523 -8.36252 3512 ft 159 kts 91°
2026-04-24 02:35 31.63426 -8.35088 3522 ft 132 kts 91°
2026-04-24 02:35 31.63342 -8.34052 3529 ft 123 kts 91°
2026-04-24 02:35 31.63258 -8.33056 3522 ft 121 kts 91°
2026-04-24 02:36 31.63173 -8.32080 3521 ft 121 kts 91°
2026-04-24 02:36 31.63086 -8.31091 3520 ft 121 kts 91°
2026-04-24 02:36 31.63001 -8.30110 3521 ft 121 kts 91°
2026-04-24 02:36 31.62915 -8.29110 3517 ft 121 kts 91°
2026-04-24 02:37 31.62829 -8.28114 3439 ft 123 kts 91°
2026-04-24 02:37 31.62745 -8.27118 3291 ft 121 kts 91°
2026-04-24 02:37 31.62658 -8.26137 3299 ft 120 kts 92°
2026-04-24 02:37 31.62573 -8.25161 3305 ft 121 kts 91°
2026-04-24 02:38 31.62489 -8.24191 3306 ft 120 kts 91°
2026-04-24 02:38 31.62404 -8.23203 3306 ft 121 kts 92°
2026-04-24 02:38 31.62319 -8.22227 3306 ft 121 kts 91°
2026-04-24 02:38 31.62233 -8.21240 3307 ft 120 kts 91°
2026-04-24 02:39 31.62148 -8.20268 3304 ft 120 kts 91°
2026-04-24 02:39 31.62063 -8.19292 3307 ft 120 kts 91°
2026-04-24 02:39 31.61978 -8.18313 3305 ft 123 kts 91°
2026-04-24 02:39 31.61889 -8.17279 3312 ft 130 kts 92°
2026-04-24 02:40 31.61797 -8.16223 3309 ft 132 kts 92°
2026-04-24 02:40 31.61703 -8.15143 3180 ft 133 kts 92°
2026-04-24 02:40 31.61608 -8.14063 3013 ft 134 kts 92°
2026-04-24 02:40 31.61512 -8.12986 2823 ft 131 kts 96°
2026-04-24 02:41 31.61383 -8.11947 2698 ft 129 kts 98°
2026-04-24 02:41 31.61233 -8.10859 2611 ft 137 kts 98°
2026-04-24 02:41 31.61150 -8.09769 2585 ft 136 kts 94°
2026-04-24 02:41 31.61077 -8.08717 2282 ft 128 kts 95°
2026-04-24 02:42 31.61006 -8.07658 2125 ft 131 kts 91°
2026-04-24 02:42 31.60939 -8.06551 1867 ft 134 kts 95°
2026-04-24 02:42 31.60849 -8.05483 1643 ft 128 kts 97°
2026-04-24 02:42 31.60767 -8.04519 1552 ft 102 kts 95°
2026-04-24 02:43 31.60712 -8.03893 1552 ft 66 kts 96°
2026-04-24 02:43 31.60667 -8.03388 1552 ft 42 kts 97°
2026-04-24 02:43 31.60570 -8.03145 1552 ft 27 kts 126°
2026-04-24 02:43 31.60484 -8.03010 1552 ft 18 kts 124°
2026-04-24 02:44 31.60451 -8.02878 1552 ft 16 kts 96°
2026-04-24 02:44 31.60439 -8.02747 1552 ft 15 kts 95°
2026-04-24 02:44 31.60428 -8.02626 1552 ft 14 kts 95°
2026-04-24 02:44 31.60419 -8.02511 1552 ft 15 kts 94°
2026-04-24 02:45 31.60406 -8.02365 1552 ft 19 kts 95°
2026-04-24 02:45 31.60391 -8.02198 1552 ft 20 kts 97°
2026-04-24 02:45 31.60376 -8.02038 1552 ft 18 kts 96°
2026-04-24 02:45 31.60365 -8.01911 1552 ft 7 kts 101°
2026-04-24 02:46 31.60326 -8.01887 1552 ft 7 kts 185°
2026-04-24 02:46 31.60283 -8.01892 1552 ft 2 kts 186°
2026-04-24 02:46 31.60277 -8.01893 1552 ft 0 kts 184°